Weather in Yuldus

Russia / Kurgan Oblast     56°05′56″N   64°21′52″E
temp.,
°C
wind,
m/s
gust,
m/s
humid.,
%
clouds,
%
prec.,
mm/h
press.,
hPa
HPBL,
m
13 june, sun
sun1323:00+14s22655 0.0 102313
02:00+13sw226596 0.0 102411
05:00+13s22686 0.0 102414
08:00+19ssw235588 0.0 1025267
11:00+23ssw344421 0.0 10251351
14:00+25ssw453820 0.0 10242009
17:00+24ssw3440100 0.0 10231708
20:00+21s225759 0.0 102312
14 june, mon
mon1423:00+16sse33605 0.0 102320
02:00+15s33620 0.0 102434
05:00+14ssw346622 0.0 102453
08:00+20ssw4753100 0.0 1024257
11:00+25sw58415 0.0 1023932
14:00+27sw67346 0.0 10221992
17:00+27sw57415 0.0 10211895
20:00+23ssw366211 0.0 102097
15 june, tue
tue1523:00+19ssw466320 0.0 102088
02:00+17sw4863100 0.0 1019106
05:00+17sw4964100 0.0 1019152
08:00+21wsw51060100 0.0 1019359
11:00+26wsw6745100 0.0 1018698
14:00+28wsw6738100 0.0 10171591
17:00+28wsw5746100 0.0 10161814
20:00+24sw4763100 0.0 1015119
16 june, wed
wed1623:00+20wsw496927 0.0 1014141
02:00+17nw368111 0.0 101591
05:00+17nw1180100 0.1 101511
08:00+22wsw116599 0.0 1016242
11:00+26w345399 0.0 1015690
14:00+29w3542100 0.0 10141814
17:00+28w3446100 0.0 10131566
20:00+22ne477389 0.0 1013181
17 june, thu
thu1723:00+18e4492100 4.4 101370
02:00+17s379231 0.4 1012110
05:00+17wsw22925 0.4 101242
08:00+22w23732 0.0 1011265
11:00+27wsw34525 0.0 1010853
14:00+30wsw444174 0.0 10081785
17:00+30ssw454010 0.0 10061545
20:00+25wnw3561100 0.0 1005148